Weather in Nizhniy Enangsk

Russia / Vologda Oblast     59°59′32″N   46°23′56″E
temp.,
°C
wind,
m/s
gust,
m/s
humid.,
%
clouds,
%
prec.,
mm/h
press.,
hPa
HPBL,
m
13 april, tue
tue1300:00+2sse2994100 0.0 1036151
03:00+3s31098100 0.0 1035270
06:00+4s51194100 0.0 1033453
09:00+6s41297100 0.0 1031487
12:00+7s41297100 0.0 1030478
15:00+8ssw41096100 0.0 1028450
18:00+9ssw41094100 0.0 1027414
21:00+8ssw41395100 0.0 1027387
14 april, wed
wed1400:00+6s31196100 0.0 1026274
03:00+6ssw3119499 0.0 1025243
06:00+6ssw3108972 0.0 1025228
09:00+12ssw410695 0.0 1024372
12:00+16ssw5106057 0.0 1023753
15:00+16ssw5116166 0.0 1021855
18:00+13ssw41168100 0.0 1021443
21:00+10ssw4138099 0.0 1020346
15 april, thu
thu1500:00+8ssw31286100 0.0 1020307
03:00+7sw2789100 0.0 1019162
06:00+6nnw2594100 0.0 1020167
09:00+6nne4789100 0.0 1021467
12:00+5nne4789100 0.0 1023578
15:00+3ne3896100 0.2 1024441
18:00+6ene1380100 0.0 1024191
21:00
16 april, fri
fri1600:000nne298331 0.0 1026190
03:00−1nne25855 0.0 1027109
06:000nne26795 0.0 1028178
09:00+5ne245216 0.0 1028939
12:00+8nne33435 0.0 10271467
15:00+9n34395 0.0 10271700
18:00+7n25501 0.0 1027130
21:00+2nnw24640 0.0 102867
17 april, sat
sat1700:00+1nnw22715 0.0 102932
03:00−1nnw27937 0.0 1029162
06:000n38895 0.0 1030352
09:00+4nne355316 0.0 10301208
12:00+6n4543100 0.0 10301933
15:00+6nnw4546100 0.0 10301706
18:00+5nnw366399 0.2 1029897
21:00+1nw27846 0.4 1030190